Date String (YYYY-MM-DD hh:mm:ss) UTC,Instrument flags,absolute air pressure of the measurement (hPa),sample flow rate (lpm),inlet stack bypass flow (lpm),air temperature of the measurement (°C),ambient temperature measured by the external sensor (°C),aerosol sample conditioner tube jacket temperature (°C),OPC LED temperature (°C),internal box temperature (°C),relative humidity of the measurement (%),span deviation,mass concentration of particles derived from Lorenz-Mie calculation of OPC scattering (μg/m³),mass concentration of particles derived from Lorenz-Mie calculation of OPC scattering (μg/m³),mass concentration of particles derived from Lorenz-Mie calculation of OPC scattering (μg/m³)
DateTimeUTC,F1_M11,P_M11,Q1_M11,Q2_M11,T1_M11,T2_M11,T3_M11,T4_M11,T5_M11,U1_M11,ZSPAN_M11,X0_M11,X2_M11,X1_M11
2023-06-14 22:00:00,SystemResetWarning,0824.9,5.01,000.00,029.6,025.3,000.0,037.9,031.1,24.9,0000.0,0009.85,0003.59,0002.98
2023-06-14 22:01:00,SystemResetWarning,0824.8,5.01,000.00,029.5,025.6,000.0,037.9,030.9,24.7,0000.0,0010.00,0003.58,0002.97
2023-06-14 22:02:00,SystemResetWarning,0824.8,5.00,000.00,029.5,026.0,000.0,037.9,030.9,24.9,0000.0,0009.76,0003.61,0002.97
2023-06-14 22:03:00,SystemResetWarning,0824.9,5.00,000.00,029.5,026.5,000.0,037.9,030.9,25.3,0000.0,0009.86,0003.62,0002.97
2023-06-14 22:04:00,SystemResetWarning,0824.8,5.00,000.00,029.5,026.9,000.0,037.9,031.0,25.7,0000.0,0009.84,0003.61,0002.97
2023-06-14 22:05:00,SystemResetWarning,0824.9,4.98,000.00,029.5,027.2,000.0,038.0,031.1,24.9,0000.0,0009.90,0003.59,0002.99
2023-06-14 22:06:00,SystemResetWarning,0824.9,5.01,000.00,029.5,027.5,000.0,038.0,031.2,26.3,0000.0,0010.18,0003.61,0002.99
2023-06-14 22:07:00,SystemResetWarning,0824.9,5.01,000.00,029.5,027.7,000.0,038.0,031.2,25.0,0000.0,0009.84,0003.61,0003.00
2023-06-14 22:08:00,SystemResetWarning,0824.9,5.00,000.00,029.6,028.0,000.0,038.0,031.3,24.9,0000.0,0009.21,0003.58,0003.01
2023-06-14 22:09:00,SystemResetWarning,0824.9,4.99,000.00,029.6,028.1,000.0,038.0,031.4,25.9,0000.0,0009.07,0003.56,0003.02
2023-06-14 22:10:00,SystemResetWarning,0824.9,4.99,000.00,029.7,026.8,000.0,038.0,031.3,26.3,0000.0,0008.97,0003.56,0003.03
2023-06-14 22:11:00,SystemResetWarning,0824.9,5.00,000.00,029.6,024.8,000.0,037.9,031.1,25.0,0000.0,0008.55,0003.54,0003.03
2023-06-14 22:12:00,SystemResetWarning,0824.9,5.01,000.00,029.5,024.3,000.0,037.9,030.9,24.9,0000.0,0008.02,0003.53,0003.04
2023-06-14 22:13:00,SystemResetWarning,0824.9,5.01,000.00,029.4,024.6,000.0,037.9,030.6,24.1,0000.0,0007.89,0003.49,0003.03
2023-06-14 22:14:00,SystemResetWarning,0824.8,4.99,000.00,029.4,025.1,000.0,037.9,030.6,24.8,0000.0,0007.76,0003.47,0003.03
2023-06-14 22:15:00,SystemResetWarning,0824.8,5.00,000.00,029.3,025.7,000.0,037.9,030.6,24.9,0000.0,0007.87,0003.47,0003.03
2023-06-14 22:16:00,SystemResetWarning,0824.8,5.00,000.00,029.3,026.2,000.0,037.9,030.8,25.2,0000.0,0008.27,0003.48,0003.02
2023-06-14 22:17:00,SystemResetWarning,0824.8,4.99,000.00,029.3,026.6,000.0,037.9,030.9,26.6,0000.0,0007.62,0003.47,0003.02
2023-06-14 22:18:00,SystemResetWarning,0824.7,5.00,000.00,029.4,027.0,000.0,037.9,031.0,26.5,0000.0,0008.18,0003.51,0003.02
2023-06-14 22:19:00,SystemResetWarning,0824.7,5.00,000.00,029.4,027.3,000.0,037.9,031.0,25.4,0000.0,0008.26,0003.52,0003.01
2023-06-14 22:20:00,SystemResetWarning,0824.7,5.02,000.00,029.4,027.6,000.0,037.9,031.1,25.4,0000.0,0008.33,0003.53,0003.00
2023-06-14 22:21:00,SystemResetWarning,0824.7,5.01,000.00,029.5,027.8,000.0,037.9,031.2,24.1,0000.0,0008.64,0003.57,0003.00
2023-06-14 22:22:00,SystemResetWarning,0824.6,5.00,000.00,029.5,028.0,000.0,037.9,031.2,24.5,0000.0,0008.52,0003.57,0002.98
2023-06-14 22:23:00,SystemResetWarning,0824.5,5.00,000.00,029.5,028.2,000.0,037.9,031.3,24.2,0000.0,0008.52,0003.58,0002.98
2023-06-14 22:24:00,SystemResetWarning,0824.5,4.99,000.00,029.6,027.6,000.0,037.9,031.3,24.4,0000.0,0008.61,0003.59,0002.97
2023-06-14 22:25:00,SystemResetWarning,0824.4,4.99,000.00,029.6,025.4,000.0,037.9,031.1,25.6,0000.0,0008.71,0003.62,0002.98
2023-06-14 22:26:00,SystemResetWarning,0824.4,5.01,000.00,029.5,024.1,000.0,037.8,031.0,24.3,0000.0,0008.83,0003.61,0002.98
2023-06-14 22:27:00,SystemResetWarning,0824.4,5.01,000.00,029.4,024.3,000.0,037.8,030.8,23.9,0000.0,0008.52,0003.59,0002.98
2023-06-14 22:28:00,SystemResetWarning,0824.4,5.00,000.00,029.3,024.7,000.0,037.8,030.6,24.1,0000.0,0008.84,0003.57,0002.98
2023-06-14 22:29:00,SystemResetWarning,0824.5,4.99,000.00,029.3,025.3,000.0,037.8,030.6,23.6,0000.0,0008.51,0003.53,0002.96
2023-06-14 22:30:00,SystemResetWarning,0824.5,5.00,000.00,029.3,025.8,000.0,037.8,030.7,24.3,0000.0,0008.82,0003.53,0002.95
2023-06-14 22:31:00,SystemResetWarning,0824.7,5.01,000.00,029.3,026.3,000.0,037.8,030.7,24.8,0000.0,0008.93,0003.55,0002.95
2023-06-14 22:32:00,SystemResetWarning,0824.7,4.99,000.00,029.3,026.7,000.0,037.8,030.8,24.5,0000.0,0008.83,0003.51,0002.95
2023-06-14 22:33:00,SystemResetWarning,0824.7,4.99,000.00,029.3,027.0,000.0,037.8,030.9,24.2,0000.0,0008.58,0003.50,0002.93
2023-06-14 22:34:00,SystemResetWarning,0824.7,5.01,000.00,029.3,027.3,000.0,037.8,031.0,24.5,0000.0,0008.57,0003.49,0002.95
2023-06-14 22:35:00,SystemResetWarning,0824.7,5.01,000.00,029.4,027.6,000.0,037.8,031.1,24.5,0000.0,0008.69,0003.49,0002.96
2023-06-14 22:36:00,SystemResetWarning,0824.8,4.99,000.00,029.4,027.8,000.0,037.8,031.1,24.0,0000.0,0009.29,0003.50,0002.96
2023-06-14 22:37:00,SystemResetWarning,0824.9,4.99,000.00,029.5,028.0,000.0,037.9,031.2,23.4,0000.0,0009.71,0003.51,0002.95
2023-06-14 22:38:00,SystemResetWarning,0824.9,5.00,000.00,029.5,028.1,000.0,037.9,031.2,24.4,0000.0,0009.72,0003.52,0002.95
2023-06-14 22:39:00,SystemResetWarning,0824.9,5.00,000.00,029.6,028.3,000.0,037.9,031.3,25.0,0000.0,0009.77,0003.53,0002.95
2023-06-14 22:40:00,SystemResetWarning,0824.9,4.99,000.00,029.6,027.7,000.0,037.9,031.3,25.2,0000.0,0009.32,0003.56,0002.94
2023-06-14 22:41:00,SystemResetWarning,0824.9,5.01,000.00,029.6,025.8,000.0,037.9,031.2,25.8,0000.0,0009.10,0003.56,0002.95
2023-06-14 22:42:00,SystemResetWarning,0824.9,5.01,000.00,029.5,025.3,000.0,037.8,031.1,26.5,0000.0,0009.40,0003.55,0002.94
2023-06-14 22:43:00,SystemResetWarning,0824.9,5.00,000.00,029.5,025.6,000.0,037.8,030.9,25.2,0000.0,0009.59,0003.56,0002.94
2023-06-14 22:44:00,SystemResetWarning,0824.9,5.00,000.00,029.4,026.0,000.0,037.9,030.8,27.0,0000.0,0009.70,0003.55,0002.95
2023-06-14 22:45:00,SystemResetWarning,0825.0,5.00,000.00,029.4,026.4,000.0,037.9,030.9,28.1,0000.0,0009.88,0003.57,0002.96
2023-06-14 22:46:00,SystemResetWarning,0825.0,5.00,000.00,029.4,026.8,000.0,037.9,031.0,29.0,0000.0,0010.01,0003.57,0002.94
2023-06-14 22:47:00,SystemResetWarning,0825.1,4.99,000.00,029.5,027.2,000.0,037.9,031.1,29.3,0000.0,0009.44,0003.54,0002.94
2023-06-14 22:48:00,SystemResetWarning,0825.1,5.00,000.00,029.5,027.5,000.0,037.9,031.1,30.1,0000.0,0009.22,0003.55,0002.99
2023-06-14 22:49:00,SystemResetWarning,0825.1,4.99,000.00,029.5,027.8,000.0,037.9,031.2,31.1,0000.0,0009.45,0003.62,0003.10
2023-06-14 22:50:00,SystemResetWarning,0825.1,5.00,000.00,029.5,028.0,000.0,038.0,031.2,30.8,0000.0,0009.56,0003.73,0003.17
2023-06-14 22:51:00,SystemResetWarning,0825.1,5.00,000.00,029.6,027.8,000.0,038.0,031.3,30.3,0000.0,0009.88,0003.79,0003.23
2023-06-14 22:52:00,SystemResetWarning,0825.1,4.99,000.00,029.6,026.0,000.0,037.9,031.0,29.5,0000.0,0010.13,0003.84,0003.26
2023-06-14 22:53:00,SystemResetWarning,0825.1,5.00,000.00,029.5,025.2,000.0,037.9,031.0,29.2,0000.0,0009.74,0003.87,0003.28
2023-06-14 22:54:00,SystemResetWarning,0824.9,5.01,000.00,029.5,025.4,000.0,037.9,030.9,28.2,0000.0,0009.88,0003.89,0003.29
2023-06-14 22:55:00,SystemResetWarning,0824.9,5.00,000.00,029.4,025.8,000.0,037.9,030.8,26.5,0000.0,0009.88,0003.95,0003.29
2023-06-14 22:56:00,SystemResetWarning,0824.9,5.00,000.00,029.4,026.2,000.0,037.9,030.9,26.5,0000.0,0010.05,0003.97,0003.30
2023-06-14 22:57:00,SystemResetWarning,0824.9,5.00,000.00,029.4,026.6,000.0,037.9,031.0,25.8,0000.0,0009.88,0003.95,0003.30
2023-06-14 22:58:00,SystemResetWarning,0824.8,5.01,000.00,029.4,027.0,000.0,037.9,031.0,26.0,0000.0,0009.98,0003.98,0003.31
2023-06-14 22:59:00,SystemResetWarning,0824.9,4.99,000.00,029.4,027.3,000.0,037.9,031.1,25.7,0000.0,0009.88,0004.00,0003.32
